Kenai, AK

4:08 PM AKDT on March 29, 2017 (GMT -0800)
Kenai Municipal

Weather History for PAEN - January, 2013

Change the Weather History Date:

Wednesday, January 30, 2013

  Actual Average Record
Temperature  
Mean Temperature 24 °F -  
Max Temperature 32 °F 23 °F 41 °F (2007)
Min Temperature 17 °F 5 °F -28 °F (1971)
Degree Days  
Heating Degree Days 40    
Moisture  
Dew Point 23 °F    
Average Humidity 91    
Maximum Humidity 100    
Minimum Humidity 79    
Precipitation  
Precipitation 0.25 in - - ()
Sea Level Pressure  
Sea Level Pressure 29.72 in    
Wind  
Wind Speed 14 mph (NNE)    
Max Wind Speed 24 mph    
Max Gust Speed 31 mph    
Visibility 6 miles    
Events Fog , Rain , Snow    
Averages and records for this station are not official NWS values.
T = Trace of Precipitation, MM = Missing Value Source: NWS Daily Summary

Daily Weather History Graph

Daily Weather History Graph

Search for Another Location

Airport or City:

Trip Planner

Search our weather history database for the weather conditions in past years. The results will help you decide how hot, cold, wet, or windy it might be!

Date:

Astronomy

Jan. 30, 2013 Rise Set
Actual Time 9:25 AM AKST 5:12 PM AKST
Civil Twilight 8:36 AM AKST 6:01 PM AKST
Nautical Twilight 7:44 AM AKST 6:53 PM AKST
Astronomical Twilight 6:55 AM AKST 7:42 PM AKST
Moon 10:47 PM AKST 9:42 AM AKST
Length of Visible Light 9h 24m
Length of Day
7h 46m
Waning Gibbous, 86% of the Moon is Illuminated
Jan 30
Waning Gibbous
Feb 3
Last Quarter
Feb 9
New
Feb 17
First Quarter
Feb 25
Full

Hourly Weather History & Observations

Time (AKST) Temp. Windchill Dew Point Humidity Pressure Visibility Wind Dir Wind Speed Gust Speed Precip Events Conditions
12:19 AM 17.6 °F 3.2 °F 12.2 °F 79% 29.84 in 10.0 mi NNE 15.0 mph 20.7 mph N/A   Overcast
12:53 AM 17.1 °F 2.5 °F 12.9 °F 84% 29.85 in 10.0 mi NE 15.0 mph - N/A   Overcast
1:53 AM 18.0 °F 3.6 °F 14.0 °F 84% 29.84 in 10.0 mi NNE 15.0 mph - N/A   Overcast
3:53 AM 19.0 °F 4.5 °F 16.0 °F 88% 29.82 in 7.0 mi NNE 16.1 mph - 0.00 in Snow Light Snow
4:21 AM 19.4 °F 6.0 °F 17.6 °F 93% 29.80 in 2.5 mi NNE 13.8 mph - 0.00 in Snow Light Snow
4:35 AM 19.4 °F 6.6 °F 17.6 °F 93% 29.80 in 2.0 mi NNE 12.7 mph - 0.01 in Snow Light Snow
4:43 AM 19.4 °F 5.5 °F 17.6 °F 93% 29.80 in 1.0 mi NNE 15.0 mph - 0.01 in Snow Light Snow
4:53 AM 19.0 °F 5.6 °F 17.1 °F 92% 29.81 in 0.8 mi NNE 13.8 mph - 0.01 in Snow Light Snow
5:09 AM 19.4 °F 6.0 °F 17.6 °F 93% 29.79 in 0.5 mi NNE 13.8 mph - 0.00 in Fog , Snow Snow
5:53 AM 19.9 °F 5.2 °F 18.0 °F 92% 29.78 in 0.5 mi NNE 17.3 mph - 0.02 in Fog , Snow Snow
6:22 AM 19.4 °F 4.1 °F 17.6 °F 93% 29.76 in 1.0 mi NNE 18.4 mph - 0.00 in Snow Light Snow
6:35 AM 21.2 °F 7.3 °F 19.4 °F 93% 29.76 in 0.8 mi NNE 16.1 mph - 0.02 in Snow Light Snow
6:43 AM 21.2 °F 7.8 °F 19.4 °F 93% 29.76 in 1.2 mi NNE 15.0 mph - 0.02 in Snow Light Snow
6:53 AM 21.0 °F 5.7 °F 19.0 °F 92% 29.76 in 3.0 mi NNE 19.6 mph - 0.02 in Snow Light Snow
7:01 AM 21.2 °F 6.4 °F 19.4 °F 93% 29.75 in 5.0 mi NNE 18.4 mph - 0.00 in Snow Light Snow
7:44 AM 21.2 °F 6.8 °F 19.4 °F 93% 29.74 in 10.0 mi NNE 17.3 mph - 0.00 in   Mostly Cloudy
7:53 AM 21.9 °F 9.2 °F 19.0 °F 89% 29.75 in 10.0 mi NNE 13.8 mph - 0.00 in   Overcast
8:49 AM 21.2 °F 5.6 °F 19.4 °F 93% 29.72 in 9.0 mi NNE 20.7 mph 25.3 mph 0.00 in   Overcast
8:53 AM 21.9 °F 7.3 °F 19.9 °F 92% 29.74 in 10.0 mi NNE 18.4 mph 25.3 mph 0.00 in   Overcast
9:36 AM 23.0 °F 7.6 °F 19.4 °F 86% 29.70 in 6.0 mi NNE 21.9 mph 28.8 mph 0.00 in   Overcast
9:53 AM 23.0 °F 6.9 °F 19.9 °F 88% 29.70 in 10.0 mi NNE 24.2 mph 31.1 mph 0.00 in   Overcast
10:53 AM 24.1 °F 10.1 °F 21.0 °F 88% 29.70 in 10.0 mi NNE 18.4 mph - N/A   Mostly Cloudy
11:53 AM 25.0 °F 11.7 °F 21.9 °F 88% 29.68 in 10.0 mi NNE 17.3 mph - N/A   Overcast
12:53 PM 26.1 °F 14.0 °F 23.0 °F 88% 29.66 in 10.0 mi NNE 15.0 mph - 0.00 in   Overcast
1:53 PM 27.0 °F 15.6 °F 23.0 °F 85% 29.67 in 10.0 mi North 13.8 mph - 0.00 in   Overcast
2:53 PM 28.0 °F 16.1 °F 24.1 °F 85% 29.65 in 10.0 mi North 16.1 mph 24.2 mph N/A   Overcast
3:53 PM 28.9 °F 18.2 °F 25.0 °F 85% 29.67 in 6.0 mi North 13.8 mph - 0.00 in Snow Light Snow
3:57 PM 28.4 °F 17.0 °F 24.8 °F 86% 29.66 in 2.5 mi North 15.0 mph - 0.00 in Snow Light Snow
4:02 PM 28.4 °F 17.5 °F 24.8 °F 86% 29.66 in 1.5 mi North 13.8 mph - 0.00 in Snow Light Snow
4:26 PM 28.4 °F 16.6 °F 26.6 °F 93% 29.65 in 2.0 mi North 16.1 mph - 0.00 in Snow Light Snow
4:36 PM 28.4 °F 16.2 °F 26.6 °F 93% 29.66 in 1.5 mi North 17.3 mph - 0.01 in Snow Light Snow
4:51 PM 28.4 °F 17.5 °F 26.6 °F 93% 29.65 in 2.5 mi NNE 13.8 mph - 0.01 in Snow Light Snow
4:53 PM 28.9 °F 20.4 °F 26.1 °F 89% 29.66 in 3.0 mi NNE 9.2 mph - 0.01 in Snow Light Snow
4:57 PM 28.4 °F 18.5 °F 26.6 °F 93% 29.65 in 2.0 mi North 11.5 mph 17.3 mph 0.00 in Snow Light Snow
5:23 PM 28.4 °F 17.5 °F 26.6 °F 93% 29.66 in 1.5 mi North 13.8 mph - 0.00 in Snow Light Snow
5:33 PM 28.4 °F 18.5 °F 28.4 °F 100% 29.66 in 0.8 mi North 11.5 mph - 0.02 in Snow Light Snow
5:53 PM 28.9 °F 20.4 °F 28.0 °F 96% 29.67 in 0.8 mi North 9.2 mph - 0.03 in Snow Light Snow
6:53 PM 30.0 °F 22.4 °F 28.9 °F 96% 29.68 in 1.0 mi NNE 8.1 mph - 0.05 in Snow Light Snow
7:32 PM 30.2 °F 21.3 °F 28.4 °F 93% 29.66 in 3.0 mi NNE 10.4 mph - 0.04 in Snow Light Snow
7:53 PM 30.0 °F 21.7 °F 28.9 °F 96% 29.68 in 4.0 mi NE 9.2 mph - 0.05 in Snow Light Snow
8:53 PM 30.9 °F 22.8 °F 30.0 °F 96% 29.68 in 8.0 mi NE 9.2 mph - 0.04 in Snow Light Snow
9:53 PM 30.9 °F 26.2 °F 30.9 °F 100% 29.68 in 10.0 mi NNE 4.6 mph - 0.01 in   Overcast
10:11 PM 30.2 °F 25.4 °F 30.2 °F 100% 29.67 in 9.0 mi NE 4.6 mph - N/A   Overcast
10:26 PM 30.2 °F 25.4 °F 30.2 °F 100% 29.68 in 9.0 mi NNE 4.6 mph - 0.00 in Rain Light Freezing Rain
10:53 PM 32.0 °F 26.4 °F 30.9 °F 96% 29.68 in 10.0 mi NNE 5.8 mph - 0.01 in Rain Light Freezing Rain
11:04 PM 32.0 °F 27.5 °F 30.2 °F 93% 29.68 in 10.0 mi NNE 4.6 mph - 0.00 in   Overcast
11:53 PM 32.0 °F - 30.0 °F 92% 29.70 in 10.0 mi Calm Calm - 0.00 in   Overcast